FW3814 Weather Reports


time (UTC)temp
C
wind
direction
speed
KPH
gust
KPH
rain 1hr
cm
rain 24hr
cm
rain mn
cm
humidity
%
barometer
mb
20260508122503 20 211 8.0 12.9 0.00 0.00 0.00 55 1014.0
20260508122003 20 192 4.8 11.3 0.00 0.00 0.00 56 1014.0
20260508121503 19 217 4.8 8.0 0.00 0.00 0.00 57 1014.2
20260508121003 19 229 6.4 9.7 0.00 0.00 0.00 56 1014.1
20260508120503 19 184 8.0 11.3 0.00 0.00 0.00 56 1014.1
20260508120003 19 186 9.7 11.3 0.00 0.00 0.00 56 1014.2
20260508115508 19 226 11.3 17.7 0.00 0.00 0.00 56 1014.2
20260508115003 19 246 11.3 17.7 0.00 0.00 0.00 56 1014.4
20260508114503 19 195 9.7 17.7 0.00 0.00 0.00 56 1014.2
20260508114024 18 138 8.0 12.9 0.00 0.00 0.00 56 1014.4
20260508113503 18 130 9.7 12.9 0.00 0.00 0.00 57 1014.4
20260508113003 18 170 8.0 12.9 0.00 0.00 0.00 56 1014.3
20260508112503 19 219 9.7 16.1 0.00 0.00 0.00 57 1014.5
20260508112003 19 205 11.3 16.1 0.00 0.00 0.00 57 1014.6
20260508111503 19 218 8.0 12.9 0.00 0.00 0.00 58 1014.4
20260508111003 19 286 4.8 9.7 0.00 0.00 0.00 58 1014.6
20260508110524 19 270 4.8 8.0 0.00 0.00 0.00 58 1014.6
20260508110003 19 181 6.4 8.0 0.00 0.00 0.00 58 1014.5
20260508105503 19 197 6.4 12.9 0.00 0.00 0.00 58 1014.6
20260508105003 19 217 8.0 12.9 0.00 0.00 0.00 59 1014.7
20260508104503 19 208 6.4 9.7 0.00 0.00 0.00 59 1014.7
20260508104024 19 170 8.0 14.5 0.00 0.00 0.00 60 1014.7
20260508103503 18 204 9.7 14.5 0.00 0.00 0.00 59 1014.7
20260508103003 18 211 8.0 14.5 0.00 0.00 0.00 60 1014.7
20260508102524 18 202 9.7 14.5 0.00 0.00 0.00 60 1014.9
20260508102003 18 215 6.4 14.5 0.00 0.00 0.00 61 1014.8
20260508101503 18 59 3.2 6.4 0.00 0.00 0.00 61 1014.9
20260508101003 18 139 6.4 12.9 0.00 0.00 0.00 60 1014.8
20260508100503 18 181 9.7 12.9 0.00 0.00 0.00 60 1014.8
20260508100003 18 203 8.0 12.9 0.00 0.00 0.00 61 1014.9
20260508095503 18 243 6.4 9.7 0.00 0.00 0.00 61 1014.9
20260508095003 18 263 8.0 12.9 0.00 0.00 0.00 61 1014.8
20260508094503 18 221 9.7 12.9 0.00 0.00 0.00 61 1014.8
20260508094003 18 208 9.7 12.9 0.00 0.00 0.00 61 1014.9
20260508093503 18 252 8.0 12.9 0.00 0.00 0.00 61 1014.8
20260508093003 17 261 8.0 9.7 0.00 0.00 0.00 62 1014.8
20260508092524 17 226 9.7 12.9 0.00 0.00 0.00 61 1014.9
20260508092003 17 197 11.3 12.9 0.00 0.00 0.00 61 1014.8
20260508091503 17 173 11.3 12.9 0.00 0.00 0.00 62 1014.8
20260508091024 17 116 11.3 12.9 0.00 0.00 0.00 62 1014.8
20260508090503 17 96 9.7 11.3 0.00 0.00 0.00 65 1014.9
20260508090024 17 127 9.7 12.9 0.00 0.00 0.00 65 1014.7
20260508085503 17 133 11.3 12.9 0.00 0.00 0.00 65 1014.9
20260508085003 16 152 9.7 12.9 0.00 0.00 0.00 65 1014.9
20260508084503 16 177 9.7 12.9 0.00 0.00 0.00 65 1014.8
20260508084003 16 195 8.0 12.9 0.00 0.00 0.00 66 1014.8
20260508083503 16 179 8.0 12.9 0.00 0.00 0.00 66 1014.7
20260508083003 16 184 11.3 14.5 0.00 0.00 0.00 66 1014.8
20260508082503 16 217 11.3 14.5 0.00 0.00 0.00 66 1014.8
20260508082003 16 219 9.7 12.9 0.00 0.00 0.00 67 1014.6
20260508081503 16 206 9.7 12.9 0.00 0.00 0.00 67 1014.8
20260508081003 17 219 6.4 12.9 0.00 0.00 0.00 68 1014.7
20260508080503 17 281 3.2 4.8 0.00 0.00 0.00 69 1014.6
20260508080024 17 317 3.2 6.4 0.00 0.00 0.00 69 1014.8
20260508075503 16 219 3.2 6.4 0.00 0.00 0.00 69 1014.6
20260508075024 16 252 4.8 6.4 0.00 0.00 0.00 69 1014.6
20260508074524 16 289 3.2 6.4 0.00 0.00 0.00 70 1014.6
20260508074003 17 330 1.6 4.8 0.00 0.00 0.00 70 1014.5
20260508073503 16 350 3.2 4.8 0.00 0.00 0.00 70 1014.4
20260508073003 16 1 3.2 4.8 0.00 0.00 0.00 71 1014.5
20260508072503 16 352 3.2 3.2 0.00 0.00 0.00 72 1014.4
20260508072003 16 333 3.2 4.8 0.00 0.00 0.00 72 1014.4
20260508071503 15 340 3.2 4.8 0.00 0.00 0.00 72 1014.4
20260508071024 15 356 4.8 4.8 0.00 0.00 0.00 72 1014.4
20260508070503 15 358 3.2 4.8 0.00 0.00 0.00 74 1014.4
20260508070003 15 330 1.6 4.8 0.00 0.00 0.00 74 1014.3
20260508065503 15 326 3.2 6.4 0.00 0.00 0.00 74 1014.2
20260508065003 14 322 1.6 6.4 0.00 0.00 0.00 75 1014.1
20260508064503 14 336 1.6 6.4 0.00 0.00 0.00 75 1014.2
20260508064003 13 341 0.0 3.2 0.00 0.00 0.00 76 1014.1
20260508063524 13 360 0.0 3.2 0.00 0.00 0.00 76 1014.1
20260508063003 13 3 1.6 3.2 0.00 0.00 0.00 75 1014.1
20260508062503 13 7 3.2 6.4 0.00 0.00 0.00 75 1014.0
20260508062003 13 15 4.8 6.4 0.00 0.00 0.00 76 1014.0
20260508061503 13 15 4.8 6.4 0.00 0.00 0.00 76 1013.9
20260508061003 13 6 4.8 6.4 0.00 0.00 0.00 76 1013.9
20260508060503 13 6 4.8 6.4 0.00 0.00 0.00 77 1013.9
20260508060003 13 4 4.8 6.4 0.00 0.00 0.00 77 1013.9
20260508055503 12 360 4.8 6.4 0.00 0.00 0.00 77 1013.8
20260508055024 12 5 4.8 6.4 0.00 0.00 0.00 77 1013.7
20260508054503 12 17 4.8 8.0 0.00 0.00 0.00 77 1013.8
20260508054003 12 11 4.8 8.0 0.00 0.00 0.00 78 1013.7
20260508053503 12 9 6.4 9.7 0.00 0.00 0.00 78 1013.6
20260508053003 12 14 8.0 9.7 0.00 0.00 0.00 78 1013.6
20260508052503 12 9 6.4 9.7 0.00 0.00 0.00 78 1013.6
20260508052024 12 5 6.4 8.0 0.00 0.00 0.00 78 1013.5
20260508051503 12 356 8.0 8.0 0.00 0.00 0.00 78 1013.4
20260508051003 12 332 6.4 8.0 0.00 0.00 0.00 80 1013.4
20260508050524 12 343 6.4 8.0 0.00 0.00 0.00 80 1013.2
20260508050003 12 6 8.0 8.0 0.00 0.00 0.00 80 1013.2
20260508045503 11 3 8.0 8.0 0.00 0.00 0.00 80 1013.3
20260508045018 11 2 6.4 8.0 0.00 0.00 0.00 80 1013.2
20260508044503 11 10 8.0 9.7 0.00 0.00 0.00 80 1013.2
20260508044003 11 16 8.0 9.7 0.00 0.00 0.00 80 1013.2
20260508043503 11 14 8.0 9.7 0.00 0.00 0.00 79 1013.1
20260508043003 11 8 8.0 9.7 0.00 0.00 0.00 79 1013.2
20260508042503 11 5 3.2 8.0 0.00 0.00 0.00 78 1013.2
20260508042003 11 7 1.6 3.2 0.00 0.00 0.00 78 1013.0
20260508041504 11 7 3.2 4.8 0.00 0.00 0.00 78 1013.1
20260508041024 11 12 1.6 4.8 0.00 0.00 0.00 78 1013.0
20260508040503 11 20 1.6 3.2 0.00 0.00 0.00 77 1013.0
20260508040003 11 15 3.2 4.8 0.00 0.00 0.00 77 1013.0
20260508035524 11 11 4.8 4.8 0.00 0.00 0.00 77 1013.0
20260508035003 11 11 3.2 6.4 0.00 0.00 0.00 77 1012.9
20260508034503 11 20 1.6 6.4 0.00 0.00 0.00 77 1013.0
20260508034003 11 46 0.0 3.2 0.00 0.00 0.00 77 1013.0
20260508033524 11 0 0.0 0.0 0.00 0.00 0.00 77 1013.0
20260508033003 12 12 1.6 4.8 0.00 0.00 0.00 77 1013.1
20260508032503 12 14 3.2 4.8 0.00 0.00 0.00 78 1013.1
20260508032003 11 23 1.6 4.8 0.00 0.00 0.00 78 1012.9
20260508031524 11 54 1.6 8.0 0.00 0.00 0.00 78 1013.0
20260508031024 11 43 4.8 8.0 0.00 0.00 0.00 78 1012.9
20260508030503 11 43 6.4 14.5 0.00 0.00 0.00 79 1012.8
20260508030003 11 47 11.3 14.5 0.00 0.00 0.00 79 1012.7
20260508025503 11 47 11.3 14.5 0.00 0.00 0.00 79 1012.9
20260508025003 11 47 8.0 12.9 0.00 0.00 0.00 78 1012.7
20260508024524 11 54 8.0 9.7 0.00 0.00 0.00 78 1012.8
20260508024003 11 49 9.7 11.3 0.00 0.00 0.00 78 1012.8
20260508023503 11 46 8.0 11.3 0.00 0.00 0.00 78 1012.8
20260508023003 11 38 8.0 11.3 0.00 0.00 0.00 78 1012.8
20260508022503 11 17 9.7 11.3 0.00 0.00 0.00 78 1012.5
20260508022024 11 15 8.0 11.3 0.00 0.00 0.00 78 1012.5
20260508021524 11 13 6.4 9.7 0.00 0.00 0.00 78 1012.4
20260508021003 11 16 4.8 6.4 0.00 0.00 0.00 78 1012.8
20260508020503 11 19 4.8 6.4 0.00 0.03 0.00 78 1012.5
20260508020003 11 13 4.8 6.4 0.00 0.03 0.00 78 1012.5
20260508015503 11 6 6.4 6.4 0.00 0.03 0.00 78 1012.8
20260508015003 11 11 6.4 6.4 0.00 0.03 0.00 78 1012.7
20260508014503 11 15 6.4 8.0 0.00 0.03 0.00 78 1012.8
20260508014003 11 7 6.4 8.0 0.00 0.03 0.00 78 1012.7
20260508013524 11 1 6.4 8.0 0.00 0.03 0.00 78 1012.3
20260508013003 11 5 8.0 8.0 0.00 0.03 0.00 78 1012.5
20260508012524 11 13 6.4 9.7 0.00 0.03 0.00 78 1012.5
20260508012024 11 14 8.0 9.7 0.00 0.03 0.00 78 1012.4
20260508011503 11 4 9.7 9.7 0.00 0.03 0.00 78 1012.5
20260508011003 11 2 8.0 11.3 0.00 0.03 0.00 77 1012.4
20260508010503 11 9 8.0 11.3 0.00 0.03 0.00 77 1012.5
20260508010003 11 10 6.4 9.7 0.00 0.03 0.00 77 1012.5
20260508005503 11 8 6.4 6.4 0.00 0.03 0.00 77 1012.7
20260508005024 11 9 6.4 8.0 0.00 0.03 0.00 77 1012.5
20260508004524 11 11 6.4 8.0 0.00 0.03 0.00 76 1012.7
20260508004003 11 7 4.8 6.4 0.00 0.03 0.00 75 1012.8
20260508003503 11 4 3.2 4.8 0.00 0.03 0.00 75 1012.8
20260508003003 11 1 3.2 4.8 0.00 0.05 0.00 75 1012.8
20260508002503 12 360 1.6 3.2 0.00 0.05 0.00 74 1012.8
20260508002003 12 5 1.6 3.2 0.00 0.05 0.00 74 1012.7
20260508001503 12 15 1.6 3.2 0.00 0.05 0.00 74 1012.9
20260508001003 12 22 1.6 3.2 0.00 0.05 0.00 72 1012.9
20260508000503 12 21 1.6 3.2 0.00 0.05 0.00 74 1012.9
20260508000024 12 35 1.6 6.4 0.00 0.05 0.00 74 1012.8
20260507235503 12 39 3.2 6.4 0.00 0.05 0.00 74 1012.7
20260507235003 12 37 3.2 6.4 0.00 0.05 0.00 74 1012.7
20260507234503 12 22 0.0 4.8 0.00 0.05 0.00 73 1012.7
20260507234003 12 0 0.0 0.0 0.00 0.05 0.00 73 1012.5
20260507233503 12 0 0.0 0.0 0.00 0.05 0.00 73 1012.7
20260507233003 12 0 0.0 0.0 0.00 0.05 0.00 70 1012.5
20260507232503 12 0 0.0 0.0 0.00 0.05 0.00 70 1012.8
20260507232003 12 22 0.0 1.6 0.00 0.05 0.00 70 1012.7
20260507231525 12 9 0.0 1.6 0.00 0.05 0.00 70 1012.9
20260507231003 12 22 0.0 1.6 0.00 0.05 0.00 70 1012.9
20260507230503 12 22 0.0 1.6 0.00 0.05 0.00 69 1012.8
20260507230024 12 22 0.0 1.6 0.00 0.05 0.00 68 1012.9
20260507225503 12 0 0.0 0.0 0.00 0.05 0.00 67 1012.9
20260507225003 12 0 0.0 0.0 0.00 0.05 0.00 67 1012.8
20260507224504 12 0 0.0 0.0 0.00 0.05 0.00 67 1012.9
20260507224003 13 0 0.0 0.0 0.00 0.05 0.00 67 1012.9
20260507223524 13 0 0.0 0.0 0.00 0.05 0.00 67 1013.0
20260507223003 13 46 0.0 3.2 0.00 0.05 0.00 66 1012.9
20260507222524 13 46 0.0 3.2 0.00 0.10 0.00 66 1012.9
20260507222003 13 0 0.0 0.0 0.00 0.10 0.00 66 1012.9
20260507221524 13 0 0.0 0.0 0.00 0.10 0.00 67 1012.9
20260507221024 13 0 0.0 0.0 0.00 0.10 0.00 66 1012.7
20260507220503 13 85 0.0 1.6 0.00 0.10 0.00 65 1012.9
20260507220004 13 86 1.6 3.2 0.00 0.10 0.00 65 1012.7
20260507215503 13 71 3.2 6.4 0.00 0.10 0.10 65 1012.7
20260507215003 13 65 4.8 6.4 0.00 0.10 0.10 64 1012.7
20260507214503 14 65 4.8 6.4 0.00 0.10 0.10 64 1012.8
20260507214003 14 67 3.2 6.4 0.00 0.13 0.10 64 1012.5
20260507213503 14 67 1.6 6.4 0.00 0.13 0.10 64 1012.5
20260507213003 14 0 0.0 0.0 0.00 0.13 0.10 64 1012.5
20260507212524 14 67 0.0 1.6 0.00 0.13 0.10 63 1012.7
20260507212003 14 67 0.0 1.6 0.00 0.13 0.10 62 1012.5
20260507211503 14 0 0.0 0.0 0.00 0.13 0.10 62 1012.7
20260507211003 15 0 0.0 0.0 0.00 0.13 0.10 62 1012.5
20260507210503 15 0 0.0 0.0 0.00 0.13 0.10 61 1012.5
20260507210003 15 0 0.0 0.0 0.00 0.15 0.10 61 1012.5
20260507205503 15 0 0.0 0.0 0.00 0.15 0.10 61 1012.4
20260507205003 15 0 0.0 0.0 0.00 0.15 0.10 61 1012.5
20260507204503 15 0 0.0 0.0 0.00 0.23 0.10 60 1012.4
20260507204024 15 0 0.0 0.0 0.00 0.28 0.10 60 1012.5
20260507203503 15 0 0.0 0.0 0.00 0.28 0.10 59 1012.3
20260507203003 15 0 0.0 0.0 0.00 0.28 0.10 58 1012.5
20260507202503 15 0 0.0 0.0 0.00 0.28 0.10 58 1012.3
20260507202024 15 0 0.0 0.0 0.00 0.28 0.10 58 1012.3
20260507201503 15 0 0.0 0.0 0.00 0.28 0.10 58 1012.2
20260507201003 15 0 0.0 0.0 0.00 0.28 0.10 58 1012.1
20260507200503 15 0 0.0 0.0 0.00 0.28 0.10 58 1012.1
20260507200024 15 0 0.0 0.0 0.00 0.28 0.10 58 1011.9
20260507195503 15 0 0.0 0.0 0.00 0.28 0.10 57 1011.9
20260507195003 16 0 0.0 0.0 0.00 0.28 0.10 57 1011.9
20260507194503 16 0 0.0 0.0 0.00 0.28 0.10 57 1011.8
20260507194003 16 0 0.0 0.0 0.00 0.28 0.10 57 1011.7
20260507193503 16 0 0.0 0.0 0.00 0.28 0.10 57 1011.7
20260507193003 16 0 0.0 0.0 0.00 0.28 0.10 57 1011.6
20260507192503 16 0 0.0 0.0 0.00 0.28 0.10 56 1011.4
20260507192003 16 0 0.0 0.0 0.00 0.28 0.10 56 1011.5
20260507191503 16 0 0.0 0.0 0.00 0.28 0.10 56 1011.3
20260507191003 16 0 0.0 0.0 0.00 0.28 0.10 56 1011.2
20260507190504 16 0 0.0 0.0 0.00 0.28 0.10 56 1011.1
20260507190004 16 0 0.0 0.0 0.00 0.28 0.10 56 1011.4
20260507185503 16 0 0.0 0.0 0.00 0.28 0.10 55 1011.2
20260507185025 16 0 0.0 0.0 0.00 0.28 0.10 55 1011.2
20260507184503 16 0 0.0 0.0 0.00 0.28 0.10 54 1011.2
20260507184003 17 0 0.0 0.0 0.00 0.28 0.10 53 1011.1
20260507183503 17 0 0.0 0.0 0.00 0.28 0.10 53 1011.0
20260507183003 17 263 1.6 4.8 0.00 0.28 0.10 49 1011.0
20260507182503 17 251 1.6 4.8 0.00 0.30 0.10 49 1010.9
20260507182003 17 245 4.8 8.0 0.00 0.30 0.10 48 1010.8
20260507181504 18 268 6.4 8.0 0.00 0.36 0.10 48 1011.0
20260507181003 18 306 4.8 6.4 0.00 0.43 0.10 47 1010.8
20260507180503 18 307 6.4 8.0 0.00 0.51 0.10 46 1010.7
20260507180003 18 275 8.0 9.7 0.00 0.51 0.10 46 1010.5
20260507175503 18 245 8.0 11.3 0.00 0.53 0.10 45 1010.6
20260507175003 19 246 9.7 11.3 0.00 0.56 0.10 45 1010.5
20260507174503 19 251 8.0 11.3 0.00 0.56 0.10 45 1010.6
20260507174003 19 237 4.8 11.3 0.00 0.61 0.10 45 1010.4
20260507173503 19 236 4.8 8.0 0.00 0.64 0.10 45 1010.3
20260507173024 20 263 6.4 9.7 0.00 0.66 0.10 45 1010.3
20260507172503 20 276 9.7 11.3 0.00 0.69 0.10 44 1010.3
20260507172003 20 262 9.7 11.3 0.00 0.69 0.10 44 1010.2
20260507171503 20 263 8.0 11.3 0.00 0.71 0.10 44 1010.2
20260507171024 20 298 9.7 11.3 0.00 0.71 0.10 44 1010.3
20260507170503 20 281 9.7 11.3 0.00 0.71 0.10 44 1010.3
20260507170003 20 260 9.7 11.3 0.00 0.71 0.10 44 1010.3
20260507165503 20 282 11.3 14.5 0.00 0.71 0.10 44 1010.2
20260507165003 20 271 12.9 14.5 0.00 0.71 0.10 43 1010.3
20260507164524 20 252 12.9 16.1 0.00 0.71 0.10 43 1010.3
20260507164003 20 239 12.9 16.1 0.00 0.71 0.10 43 1010.3
20260507163524 20 237 12.9 16.1 0.00 0.71 0.10 43 1010.2
20260507163003 21 250 8.0 14.5 0.00 0.71 0.10 43 1010.2
20260507162503 21 269 6.4 12.9 0.00 0.71 0.10 43 1010.1
20260507162003 21 294 6.4 8.0 0.00 0.71 0.10 43 1010.1
20260507161503 21 314 8.0 9.7 0.00 0.71 0.10 42 1010.2
20260507161003 21 322 8.0 9.7 0.00 0.71 0.10 42 1010.2
20260507160503 21 271 8.0 12.9 0.00 0.71 0.10 43 1010.2
20260507160003 21 233 8.0 12.9 0.00 0.71 0.10 43 1010.1
20260507155503 21 208 9.7 14.5 0.00 0.71 0.10 43 1010.0
20260507155003 21 226 9.7 14.5 0.00 0.71 0.10 43 1010.1
20260507154503 21 271 4.8 11.3 0.00 0.71 0.10 44 1010.2
20260507154003 21 235 4.8 11.3 0.00 0.71 0.10 44 1010.2
20260507153504 21 227 9.7 16.1 0.00 0.71 0.10 44 1010.1
20260507153003 21 248 12.9 16.1 0.00 0.71 0.10 43 1010.1
20260507152503 21 274 8.0 16.1 0.00 0.71 0.10 44 1010.2
20260507152024 21 294 4.8 6.4 0.00 0.71 0.10 45 1010.2
20260507151503 21 261 4.8 16.1 0.00 0.71 0.10 45 1010.2
20260507151003 21 245 6.4 16.1 0.00 0.71 0.10 44 1010.2
20260507150503 21 272 4.8 8.0 0.00 0.71 0.10 46 1010.4
20260507150024 21 305 8.0 16.1 0.00 0.71 0.10 46 1010.2
20260507145503 21 309 9.7 16.1 0.00 0.71 0.10 44 1010.3
20260507145018 21 290 9.7 12.9 0.00 0.71 0.10 45 1010.2
20260507144503 21 273 8.0 12.9 0.00 0.71 0.10 46 1010.3
20260507144003 21 328 4.8 11.3 0.00 0.71 0.10 47 1010.2
20260507143524 21 141 4.8 6.4 0.00 0.71 0.10 46 1010.2
20260507143003 21 170 6.4 12.9 0.00 0.71 0.10 46 1010.5
20260507142503 21 224 4.8 12.9 0.00 0.71 0.10 46 1010.5
20260507142003 21 299 3.2 6.4 0.00 0.71 0.10 48 1010.4
20260507141524 20 223 4.8 12.9 0.00 0.71 0.10 48 1010.3
20260507141024 20 233 9.7 12.9 0.00 0.71 0.10 49 1010.4
20260507140503 21 240 9.7 12.9 0.00 0.71 0.10 50 1010.7
20260507140003 21 242 8.0 12.9 0.00 0.71 0.10 50 1010.5
20260507135503 21 250 6.4 12.9 0.00 0.71 0.10 51 1010.6
20260507135003 21 248 6.4 8.0 0.00 0.71 0.10 52 1010.5
20260507134503 20 287 4.8 8.0 0.00 0.71 0.10 52 1010.6
20260507134003 20 297 6.4 12.9 0.00 0.71 0.10 51 1010.7
20260507133503 20 304 9.7 12.9 0.00 0.71 0.10 51 1010.8
20260507133003 20 302 8.0 12.9 0.00 0.71 0.10 51 1010.9
20260507132503 20 268 6.4 14.5 0.00 0.71 0.10 52 1010.8
20260507132003 20 242 6.4 14.5 0.00 0.71 0.10 53 1010.8
20260507131503 20 219 11.3 16.1 0.00 0.71 0.10 54 1010.8
20260507131003 20 254 11.3 16.1 0.00 0.81 0.10 54 1011.1
20260507130503 20 284 9.7 16.1 0.00 0.84 0.10 53 1010.8
20260507130018 20 254 9.7 16.1 0.00 0.97 0.10 53 1011.0
20260507125503 20 247 8.0 12.9 0.00 1.04 0.10 54 1011.0
20260507125003 20 229 8.0 12.9 0.00 1.27 0.10 55 1011.0
20260507124503 20 223 11.3 16.1 0.00 1.30 0.10 55 1011.1
20260507124003 20 229 11.3 16.1 0.00 1.35 0.10 56 1011.2
20260507123503 19 245 9.7 12.9 0.00 1.35 0.10 57 1011.1
20260507123003 19 220 9.7 12.9 0.00 1.35 0.10 58 1011.1